Torreon, Mexico

3:30 AM CST on December 18, 2017 (GMT -0600)
Torreon International

Weather History for MMTC - March, 2013

Change the Weather History Date:

Tuesday, March 19, 2013

  Actual Average Record
Temperature  
Mean Temperature 75 °F -  
Max Temperature 96 °F 85 °F 96 °F (2013)
Min Temperature 54 °F 59 °F 42 °F (2008)
Cooling Degree Days 10    
Growing Degree Days 25 (Base 50)    
Moisture  
Dew Point 23 °F    
Average Humidity 14    
Maximum Humidity 36    
Minimum Humidity 5    
Precipitation  
Precipitation 0.00 in - - ()
Sea Level Pressure  
Sea Level Pressure 29.86 in    
Wind  
Wind Speed 3 mph ()    
Max Wind Speed 8 mph    
Max Gust Speed -    
Visibility 10.9 miles    
Events      
Averages and records for this station are not official NWS values.
T = Trace of Precipitation, MM = Missing Value Source: Averaged Metar Reports

Daily Weather History Graph

Daily Weather History Graph

Search for Another Location

Airport or City:

Trip Planner

Search our weather history database for the weather conditions in past years. The results will help you decide how hot, cold, wet, or windy it might be!

Date:

Astronomy

Mar. 19, 2013 Rise Set
Actual Time 6:58 AM CST 7:04 PM CST
Civil Twilight 6:35 AM CST 7:27 PM CST
Nautical Twilight 6:08 AM CST 7:54 PM CST
Astronomical Twilight 5:42 AM CST 8:21 PM CST
Moon 12:22 PM CST (3/19) 1:21 AM CST (3/19)
Length of Visible Light 12h 52m
Length of Day
12h 06m
Waxing Crescent, 50% of the Moon is Illuminated
Mar 19
Waxing Crescent
Mar 27
Full
Apr 2
Last Quarter
Apr 10
New
Apr 18
First Quarter

Hourly Weather History & Observations

Time (CST) Temp. Dew Point Humidity Pressure Visibility Wind Dir Wind Speed Gust Speed Precip Events Conditions
2:53 AM 64 °F 42 °F 33% 29.77 in 6 mi North 4.5 mph - -  
5:40 AM 57.2 °F 10.4 °F 16% 29.81 in 10.0 mi WNW 4.6 mph - N/A   Clear
5:50 AM 62 °F 35 °F 25% 29.84 in 6 mi NNW 6.7 mph - -  
6:40 AM 53.6 °F 10.4 °F 18% 30.04 in 10.0 mi Calm Calm - N/A   Clear
7:47 AM 55.4 °F 12.2 °F 18% 30.06 in 15.0 mi Calm Calm - N/A   Clear
8:40 AM 60 °F 40 °F 36% 29.95 in 19 mi Calm Calm - -  
8:50 AM 62.6 °F 14.0 °F 15% 29.90 in 15.0 mi ENE 2.3 mph - N/A   Clear
9:46 AM 69.8 °F 12.2 °F 11% 30.09 in 10.0 mi East 6.9 mph - N/A   Clear
10:40 AM 73.4 °F 14.0 °F 10% 30.09 in 8.0 mi East 3.5 mph - N/A   Clear
11:44 AM 77.0 °F 14.0 °F 9% 29.86 in 7.0 mi Calm Calm - N/A   Clear
11:50 AM 83 °F 42 °F 15% 29.91 in 19 mi NE 4.5 mph - -  
12:40 PM 82.4 °F 15.8 °F 8% 30.03 in 8.0 mi Calm Calm - N/A   Clear
1:40 PM 84.2 °F 15.8 °F 8% 29.99 in 10.0 mi ESE 4.6 mph - N/A   Clear
2:45 PM 91 °F 44 °F 11% 29.74 in 19 mi NE 4.5 mph - -  
2:45 PM 86.0 °F 15.8 °F 7% 29.71 in 10.0 mi NE 8.1 mph - N/A   Clear
3:40 PM 87.8 °F 12.2 °F 6% 29.90 in 10.0 mi NE 8.1 mph - N/A   Clear
4:40 PM 89.6 °F 12.2 °F 6% 29.88 in 10.0 mi North 5.8 mph - N/A   Scattered Clouds
5:40 PM 89.6 °F 10.4 °F 5% 29.64 in 10.0 mi North 8.1 mph - N/A   Scattered Clouds
5:45 PM 91 °F 44 °F 11% 29.62 in 19 mi NE 4.5 mph - -   Clear
6:48 PM 84.2 °F 12.2 °F 7% 29.88 in 10.0 mi North 8.1 mph - N/A   Mostly Cloudy
7:44 PM 78.8 °F 15.8 °F 9% 29.90 in 10.0 mi North 5.8 mph - N/A   Scattered Clouds
8:40 PM 75.2 °F 15.8 °F 11% 29.70 in 10.0 mi Calm Calm - N/A   Scattered Clouds
8:55 PM 77 °F 55 °F 36% 29.62 in 6 mi SW 2.2 mph - -  
9:40 PM 71.6 °F 17.6 °F 13% 29.93 in 10.0 mi Calm Calm - N/A   Scattered Clouds
10:40 PM 71.6 °F 19.4 °F 14% 29.95 in 10.0 mi WSW 4.6 mph - N/A   Scattered Clouds
11:48 PM 74 °F 38 °F 17% 29.66 in 6 mi SSE 4.5 mph - -